DW9170 Weather Reports


Display with metric or nautical units.
time (UTC)temp
F
wind
direction
speed
MPH
gust
MPH
rain 1hr
in
rain 24hr
in
rain mn
in
humidity
%
barometer
mb
20260510230200 64 339 7.0 14.0 0.00 0.00 0.00 34 1015.4
20260510224727 64 304 6.0 12.0 0.00 0.00 0.00 37 1015.2
20260510223211 66 343 5.0 11.0 0.00 0.00 0.00 37 1014.7
20260510221710 66 263 3.0 12.0 0.00 0.00 0.00 39 1014.3
20260510220211 66 304 2.0 11.0 0.00 0.00 0.00 37 1014.2
20260510214701 67 302 5.0 17.0 0.00 0.00 0.00 35 1014.1
20260510213159 68 239 5.0 16.0 0.00 0.00 0.00 35 1013.9
20260510211706 68 244 3.0 17.0 0.00 0.00 0.00 41 1013.7
20260510210220 67 254 3.0 13.0 0.00 0.00 0.00 45 1013.5
20260510204713 67 280 3.0 9.0 0.00 0.00 0.00 48 1013.4
20260510203201 66 322 4.0 11.0 0.00 0.00 0.00 47 1013.3
20260510201719 66 278 4.0 10.0 0.00 0.00 0.00 53 1013.3
20260510200201 66 302 1.0 13.0 0.00 0.00 0.00 53 1013.5
20260510194702 65 280 6.0 11.0 0.00 0.00 0.00 55 1013.4
20260510193230 65 274 6.0 11.0 0.00 0.00 0.00 55 1013.6
20260510191658 65 278 5.0 10.0 0.00 0.00 0.00 56 1013.6
20260510190205 64 277 4.0 13.0 0.00 0.00 0.00 58 1013.8
20260510184658 65 275 4.0 8.0 0.00 0.00 0.00 59 1013.6
20260510183215 65 288 7.0 13.0 0.00 0.00 0.00 59 1013.3
20260510181730 66 287 3.0 10.0 0.00 0.00 0.00 57 1013.5
20260510180205 65 271 5.0 13.0 0.00 0.00 0.00 59 1013.7
20260510174737 64 219 3.0 8.0 0.00 0.00 0.00 66 1013.7
20260510173204 64 229 2.0 8.0 0.00 0.00 0.00 60 1013.5
20260510171659 65 229 2.0 6.0 0.00 0.00 0.00 57 1013.4
20260510170221 65 233 2.0 7.0 0.00 0.00 0.00 59 1013.5
20260510164655 65 247 2.0 8.0 0.00 0.00 0.00 58 1013.6
20260510163214 63 247 5.0 10.0 0.00 0.00 0.00 60 1013.6
20260510161711 62 254 3.0 13.0 0.00 0.00 0.00 65 1013.9
20260510160219 61 288 5.0 10.0 0.00 0.00 0.00 65 1013.7
20260510154701 60 241 4.0 14.0 0.00 0.00 0.00 68 1013.7
20260510153223 60 270 5.0 11.0 0.00 0.00 0.00 71 1013.7
20260510151656 59 253 0.0 5.0 0.00 0.00 0.00 77 1013.6
20260510150218 58 253 0.0 3.0 0.00 0.00 0.00 79 1013.7
20260510144737 57 244 0.0 0.0 0.00 0.00 0.00 81 1013.6
20260510143206 56 244 0.0 0.0 0.00 0.00 0.00 83 1013.7
20260510141728 55 244 0.0 2.0 0.00 0.00 0.00 88 1013.9
20260510140201 53 244 1.0 5.0 0.00 0.00 0.00 86 1014.0
20260510134707 52 261 0.0 0.0 0.00 0.00 0.00 94 1013.3
20260510133156 51 261 0.0 2.0 0.00 0.00 0.00 95 1013.0
20260510131716 51 280 0.0 0.0 0.00 0.00 0.00 100 1013.1
20260510130219 51 280 0.0 3.0 0.00 0.00 0.00 100 1013.1
20260510124655 50 232 0.0 0.0 0.00 0.00 0.00 100 1013.0
20260510123216 50 232 0.0 0.0 0.00 0.00 0.00 100 1013.0
20260510121733 50 232 0.0 0.0 0.00 0.00 0.00 100 1013.0
20260510120232 49 232 0.0 1.0 0.00 0.00 0.00 100 1013.3
20260510114702 49 232 0.0 0.0 0.00 0.00 0.00 100 1013.3
20260510113205 49 232 0.0 0.0 0.00 0.00 0.00 100 1013.0
20260510111718 49 232 0.0 0.0 0.00 0.00 0.00 100 1013.0
20260510110222 49 232 0.0 0.0 0.00 0.00 0.00 100 1012.4
20260510104704 48 232 0.0 0.0 0.00 0.00 0.00 100 1012.3
20260510103218 48 232 0.0 0.0 0.00 0.00 0.00 100 1012.1
20260510101726 47 232 0.0 0.0 0.00 0.00 0.00 100 1012.1
20260510100221 47 232 0.0 0.0 0.00 0.00 0.00 100 1011.6
20260510094716 47 232 0.0 0.0 0.00 0.00 0.00 100 1011.6
20260510093203 47 232 0.0 0.0 0.00 0.00 0.00 100 1011.7
20260510091718 47 232 0.0 0.0 0.00 0.00 0.00 100 1011.5
20260510090223 46 232 0.0 0.0 0.00 0.00 0.00 100 1011.8
20260510084722 46 232 0.0 0.0 0.00 0.00 0.00 100 1011.9
20260510083212 46 232 0.0 0.0 0.00 0.00 0.00 99 1012.0
20260510081703 46 232 0.0 0.0 0.00 0.00 0.00 100 1011.9
20260510080218 46 232 0.0 0.0 0.00 0.00 0.00 100 1012.1
20260510074706 46 232 0.0 0.0 0.00 0.00 0.00 100 1011.9
20260510073159 46 232 0.0 0.0 0.00 0.00 0.00 100 1011.9
20260510071718 46 232 0.0 0.0 0.00 0.00 0.00 99 1012.0
20260510070205 45 232 0.0 0.0 0.00 0.00 0.00 99 1011.9
20260510064702 45 232 0.0 0.0 0.00 0.00 0.00 99 1012.1
20260510063216 45 232 0.0 0.0 0.00 0.00 0.00 100 1012.2
20260510061706 45 232 0.0 0.0 0.00 0.00 0.00 99 1012.0
20260510060223 45 232 0.0 0.0 0.00 0.00 0.00 99 1012.1
20260510054654 45 232 0.0 0.0 0.00 0.00 0.00 99 1012.0
20260510053216 45 232 0.0 0.0 0.00 0.00 0.00 99 1012.1
20260510051701 45 232 0.0 0.0 0.00 0.00 0.00 99 1012.3
20260510050157 45 232 0.0 0.0 0.00 0.00 0.00 99 1012.3
20260510044708 45 232 0.0 0.0 0.00 0.00 0.00 99 1012.6
20260510043205 45 232 0.0 0.0 0.00 0.00 0.00 98 1012.6
20260510041716 45 232 0.0 0.0 0.00 0.00 0.00 98 1012.6
20260510040216 45 232 0.0 0.0 0.00 0.00 0.00 98 1012.7
20260510034718 45 232 0.0 0.0 0.00 0.00 0.00 98 1012.6
20260510033248 45 232 0.0 0.0 0.00 0.00 0.00 98 1012.7
20260510030206 45 232 0.0 0.0 0.00 0.00 0.00 98 1013.1
20260510024712 45 232 0.0 0.0 0.00 0.00 0.00 98 1013.2
20260510023211 45 232 0.0 0.0 0.00 0.00 0.00 98 1013.1
20260510021727 45 232 0.0 0.0 0.00 0.00 0.00 97 1013.2
20260510020216 45 232 0.0 0.0 0.00 0.00 0.00 97 1013.3
20260510014707 45 232 0.0 1.0 0.00 0.00 0.00 97 1013.3
20260510013227 45 232 0.0 0.0 0.00 0.00 0.00 97 1013.4
20260510011727 45 232 0.0 0.0 0.00 0.00 0.00 97 1013.4
20260510010245 45 232 0.0 0.0 0.00 0.00 0.00 97 1013.2
20260510004714 45 232 0.0 0.0 0.00 0.00 0.00 97 1013.0
20260510003209 45 232 0.0 0.0 0.00 0.00 0.00 97 1012.9
20260510001706 44 232 0.0 0.0 0.00 0.00 0.00 97 1012.8
20260510000222 44 232 0.0 0.0 0.00 0.00 0.00 97 1012.9
20260509234715 44 232 0.0 0.0 0.00 0.00 0.00 97 1012.9
20260509233213 44 232 0.0 0.0 0.00 0.00 0.00 97 1012.8
20260509231708 44 232 0.0 0.0 0.00 0.00 0.00 97 1012.8